Time,TemperatureF,DewpointF,PressureIn,WindDirection,WindDirectionDegrees,WindSpeedMPH,WindSpeedGustMPH,Humidity,HourlyPrecipIn,Conditions,Clouds,dailyrainin,SoftwareType,DateUTC
2013-09-20 00:00:00,54.6,52.0,30.02,SE,124,0.0,0.0,91,0.00,RA,,0.00,WeatherDisplay:10.37,2013-09-20 04:00:00,
2013-09-20 00:01:00,54.6,52.0,30.02,SE,124,0.0,0.0,91,0.00,RA,,0.00,WeatherDisplay:10.37,2013-09-20 04:01:00,
2013-09-20 00:02:00,54.6,52.0,30.02,SE,124,0.0,0.0,91,0.00,RA,,0.00,WeatherDisplay:10.37,2013-09-20 04:02:00,
2013-09-20 00:03:00,54.6,52.0,30.02,SE,124,0.0,0.0,91,0.00,RA,,0.00,WeatherDisplay:10.37,2013-09-20 04:03:00,
2013-09-20 00:08:00,54.5,51.9,30.02,SE,124,0.0,0.0,91,0.00,RA,,0.00,WeatherDisplay:10.37,2013-09-20 04:08:00,
2013-09-20 00:13:00,54.4,51.8,30.02,SE,124,0.0,0.0,91,0.00,,,0.00,WeatherDisplay:10.37,2013-09-20 04:13:00,
2013-09-20 00:18:00,54.4,51.8,30.02,SE,124,0.0,0.0,91,0.00,,,0.00,WeatherDisplay:10.37,2013-09-20 04:18:00,
2013-09-20 00:23:00,54.3,51.7,30.02,SE,124,0.0,0.0,91,0.00,,,0.00,WeatherDisplay:10.37,2013-09-20 04:23:00,
2013-09-20 00:28:00,54.1,51.5,30.02,SE,124,0.0,0.0,91,0.00,,,0.00,WeatherDisplay:10.37,2013-09-20 04:28:00,
2013-09-20 00:33:00,54.1,51.5,30.03,SE,124,0.0,0.0,91,0.00,,,0.00,WeatherDisplay:10.37,2013-09-20 04:33:00,
2013-09-20 00:38:00,54.0,51.4,30.03,SE,124,0.0,0.0,91,0.00,,,0.00,WeatherDisplay:10.37,2013-09-20 04:38:00,
2013-09-20 00:43:00,54.0,51.1,30.02,SE,124,0.0,0.0,90,0.00,,,0.00,WeatherDisplay:10.37,2013-09-20 04:43:00,
2013-09-20 00:48:00,54.0,51.1,30.02,SE,124,0.0,0.0,90,0.00,,,0.00,WeatherDisplay:10.37,2013-09-20 04:48:00,
2013-09-20 00:53:00,53.9,51.3,30.02,SE,124,0.0,0.0,91,0.00,,,0.00,WeatherDisplay:10.37,2013-09-20 04:53:00,
2013-09-20 00:58:00,53.7,51.1,30.02,SE,124,0.0,0.0,91,0.00,,,0.00,WeatherDisplay:10.37,2013-09-20 04:58:00,
2013-09-20 01:03:00,53.7,50.8,30.02,SE,124,0.0,0.0,90,0.00,,,0.00,WeatherDisplay:10.37,2013-09-20 05:03:00,
2013-09-20 01:08:00,53.7,50.8,30.02,SE,124,0.0,0.0,90,0.00,,,0.00,WeatherDisplay:10.37,2013-09-20 05:08:00,
2013-09-20 01:13:00,53.6,50.7,30.02,SE,124,0.0,0.0,90,0.00,,,0.00,WeatherDisplay:10.37,2013-09-20 05:13:00,
2013-09-20 01:18:00,53.8,50.9,30.02,SE,124,0.0,0.0,90,0.00,,,0.00,WeatherDisplay:10.37,2013-09-20 05:18:00,
2013-09-20 01:23:00,53.9,50.7,30.02,SE,124,0.0,0.0,89,0.00,,,0.00,WeatherDisplay:10.37,2013-09-20 05:23:00,
2013-09-20 01:28:00,53.9,51.0,30.02,SE,124,0.0,0.0,90,0.00,,,0.00,WeatherDisplay:10.37,2013-09-20 05:28:00,
2013-09-20 01:33:00,53.7,50.8,30.02,SE,124,0.0,0.0,90,0.00,,,0.00,WeatherDisplay:10.37,2013-09-20 05:33:00,
2013-09-20 01:38:00,53.5,50.6,30.03,SE,124,0.0,0.0,90,0.00,,,0.00,WeatherDisplay:10.37,2013-09-20 05:38:00,
2013-09-20 01:43:00,53.4,50.5,30.02,SE,124,0.0,0.0,90,0.00,,,0.00,WeatherDisplay:10.37,2013-09-20 05:43:00,
2013-09-20 01:48:00,53.2,50.3,30.02,SE,124,0.0,0.0,90,0.00,,,0.00,WeatherDisplay:10.37,2013-09-20 05:48:00,
2013-09-20 01:53:00,53.2,50.3,30.02,SE,124,0.0,0.0,90,0.00,,,0.00,WeatherDisplay:10.37,2013-09-20 05:53:00,
2013-09-20 01:58:00,53.2,50.3,30.02,SE,124,0.0,0.0,90,0.00,,,0.00,WeatherDisplay:10.37,2013-09-20 05:58:00,
2013-09-20 02:03:00,53.2,50.0,30.02,SE,124,0.0,0.0,89,0.00,,,0.00,WeatherDisplay:10.37,2013-09-20 06:03:00,
2013-09-20 02:08:00,53.4,50.2,30.02,SE,124,0.0,0.0,89,0.00,,,0.00,WeatherDisplay:10.37,2013-09-20 06:08:00,
2013-09-20 02:13:00,53.8,50.6,30.02,SE,124,0.0,0.0,89,0.00,,,0.00,WeatherDisplay:10.37,2013-09-20 06:13:00,
2013-09-20 02:18:00,53.8,50.6,30.02,SE,124,0.0,0.0,89,0.00,,,0.00,WeatherDisplay:10.37,2013-09-20 06:18:00,
2013-09-20 02:23:00,53.7,50.5,30.02,SE,124,0.0,0.0,89,0.00,,,0.00,WeatherDisplay:10.37,2013-09-20 06:23:00,
2013-09-20 02:28:00,53.7,50.5,30.01,SE,124,0.0,0.0,89,0.00,,,0.00,WeatherDisplay:10.37,2013-09-20 06:28:00,
2013-09-20 02:33:00,53.8,50.6,30.01,SE,124,0.0,0.0,89,0.00,,,0.00,WeatherDisplay:10.37,2013-09-20 06:33:00,
2013-09-20 02:38:00,53.9,50.7,30.01,SE,124,0.0,0.0,89,0.00,,,0.00,WeatherDisplay:10.37,2013-09-20 06:38:00,
2013-09-20 02:43:00,53.9,50.7,30.01,SE,124,0.0,0.0,89,0.00,,,0.00,WeatherDisplay:10.37,2013-09-20 06:43:00,
2013-09-20 02:48:00,54.1,50.9,30.01,SE,124,0.0,0.0,89,0.00,,,0.00,WeatherDisplay:10.37,2013-09-20 06:48:00,
2013-09-20 02:53:00,54.1,50.9,30.01,SE,124,0.0,0.0,89,0.00,,,0.00,WeatherDisplay:10.37,2013-09-20 06:53:00,
2013-09-20 02:59:00,54.2,51.0,30.01,SE,124,0.0,0.0,89,0.00,,,0.00,WeatherDisplay:10.37,2013-09-20 06:59:00,
2013-09-20 03:04:00,54.2,51.0,30.01,SE,124,0.0,0.0,89,0.00,,,0.00,WeatherDisplay:10.37,2013-09-20 07:04:00,
2013-09-20 03:09:00,54.2,51.0,30.01,SE,124,0.0,0.0,89,0.00,,,0.00,WeatherDisplay:10.37,2013-09-20 07:09:00,
2013-09-20 03:14:00,54.1,50.9,30.02,SE,124,0.0,0.0,89,0.00,,,0.00,WeatherDisplay:10.37,2013-09-20 07:14:00,
2013-09-20 03:19:00,54.0,50.8,30.01,SE,124,0.0,0.0,89,0.00,,,0.00,WeatherDisplay:10.37,2013-09-20 07:19:00,
2013-09-20 03:24:00,54.0,50.8,30.02,SE,124,0.0,0.0,89,0.00,,,0.00,WeatherDisplay:10.37,2013-09-20 07:24:00,
2013-09-20 03:29:00,53.9,50.7,30.02,SE,124,0.0,0.0,89,0.00,,,0.00,WeatherDisplay:10.37,2013-09-20 07:29:00,
2013-09-20 03:34:00,53.7,50.5,30.02,SE,124,0.0,0.0,89,0.00,,,0.00,WeatherDisplay:10.37,2013-09-20 07:34:00,
2013-09-20 03:39:00,53.6,50.4,30.02,SE,124,0.0,0.0,89,0.00,,,0.00,WeatherDisplay:10.37,2013-09-20 07:39:00,
2013-09-20 03:44:00,53.4,50.2,30.02,SE,124,0.0,0.0,89,0.00,,,0.00,WeatherDisplay:10.37,2013-09-20 07:44:00,
2013-09-20 03:49:00,53.3,50.1,30.02,SE,124,0.0,0.0,89,0.00,,,0.00,WeatherDisplay:10.37,2013-09-20 07:49:00,
2013-09-20 03:54:00,53.2,50.0,30.02,SE,124,0.0,0.0,89,0.00,,,0.00,WeatherDisplay:10.37,2013-09-20 07:54:00,
2013-09-20 03:59:00,53.2,50.0,30.02,SE,124,0.0,0.0,89,0.00,,,0.00,WeatherDisplay:10.37,2013-09-20 07:59:00,
2013-09-20 04:04:00,53.2,50.0,30.02,SE,124,0.0,0.0,89,0.00,,,0.00,WeatherDisplay:10.37,2013-09-20 08:04:00,
2013-09-20 04:09:00,53.3,50.1,30.02,SE,124,0.0,0.0,89,0.00,,,0.00,WeatherDisplay:10.37,2013-09-20 08:09:00,
2013-09-20 04:14:00,53.6,50.4,30.02,SE,124,0.0,0.0,89,0.00,,,0.00,WeatherDisplay:10.37,2013-09-20 08:14:00,
2013-09-20 04:19:00,53.6,50.4,30.02,SE,124,0.0,0.0,89,0.00,,,0.00,WeatherDisplay:10.37,2013-09-20 08:19:00,
2013-09-20 04:24:00,53.5,50.3,30.02,SE,124,0.0,0.0,89,0.00,,,0.00,WeatherDisplay:10.37,2013-09-20 08:24:00,
2013-09-20 04:29:00,53.4,50.2,30.02,SE,124,0.0,0.0,89,0.00,,,0.00,WeatherDisplay:10.37,2013-09-20 08:29:00,
2013-09-20 04:34:00,53.2,50.0,30.01,SE,124,0.0,0.0,89,0.00,,,0.00,WeatherDisplay:10.37,2013-09-20 08:34:00,
2013-09-20 04:39:00,53.2,50.0,30.01,SE,124,0.0,0.0,89,0.00,,,0.00,WeatherDisplay:10.37,2013-09-20 08:39:00,
2013-09-20 04:44:00,53.3,50.1,30.01,SE,124,0.0,0.0,89,0.00,,,0.00,WeatherDisplay:10.37,2013-09-20 08:44:00,
2013-09-20 04:49:00,53.5,50.3,30.01,SE,124,0.0,0.0,89,0.00,,,0.00,WeatherDisplay:10.37,2013-09-20 08:49:00,
2013-09-20 04:54:00,53.6,50.4,30.01,East,89,0.0,0.0,89,0.00,,,0.00,WeatherDisplay:10.37,2013-09-20 08:54:00,
2013-09-20 04:59:00,53.7,50.5,30.01,East,89,0.0,0.0,89,0.00,,,0.00,WeatherDisplay:10.37,2013-09-20 08:59:00,
2013-09-20 05:04:00,53.7,50.5,30.01,East,89,0.0,0.0,89,0.00,,,0.00,WeatherDisplay:10.37,2013-09-20 09:04:00,
2013-09-20 05:09:00,53.7,50.5,30.01,East,89,0.0,0.0,89,0.00,,,0.00,WeatherDisplay:10.37,2013-09-20 09:09:00,
2013-09-20 05:14:00,53.7,50.5,30.01,East,89,0.0,0.0,89,0.00,,,0.00,WeatherDisplay:10.37,2013-09-20 09:14:00,
2013-09-20 05:19:00,53.8,50.6,30.00,East,89,0.0,0.0,89,0.00,,,0.00,WeatherDisplay:10.37,2013-09-20 09:19:00,
2013-09-20 05:24:00,53.9,50.7,30.00,East,89,0.0,0.0,89,0.00,,,0.00,WeatherDisplay:10.37,2013-09-20 09:24:00,
2013-09-20 05:29:00,53.8,50.6,30.00,East,89,0.0,0.0,89,0.00,,,0.00,WeatherDisplay:10.37,2013-09-20 09:29:00,
2013-09-20 05:34:00,53.6,50.4,30.00,East,89,0.0,0.0,89,0.00,,,0.00,WeatherDisplay:10.37,2013-09-20 09:34:00,
2013-09-20 05:39:00,53.6,50.4,30.01,East,89,0.0,0.0,89,0.00,,,0.00,WeatherDisplay:10.37,2013-09-20 09:39:00,
2013-09-20 05:44:00,53.5,50.3,30.01,East,89,0.0,0.0,89,0.00,,,0.00,WeatherDisplay:10.37,2013-09-20 09:44:00,
2013-09-20 05:49:00,53.6,50.4,30.00,East,89,0.0,0.0,89,0.00,,,0.00,WeatherDisplay:10.37,2013-09-20 09:49:00,
2013-09-20 05:54:00,53.4,50.2,30.00,East,89,0.0,0.0,89,0.00,,,0.00,WeatherDisplay:10.37,2013-09-20 09:54:00,
2013-09-20 05:59:00,53.4,50.2,30.01,East,89,0.0,0.0,89,0.00,,,0.00,WeatherDisplay:10.37,2013-09-20 09:59:00,
2013-09-20 06:04:00,53.2,50.0,30.01,SSE,153,0.0,0.0,89,0.00,,,0.00,WeatherDisplay:10.37,2013-09-20 10:04:00,
2013-09-20 06:09:00,53.3,50.1,30.01,ESE,121,0.0,0.0,89,0.00,,,0.00,WeatherDisplay:10.37,2013-09-20 10:09:00,
2013-09-20 06:14:00,53.2,50.0,30.01,ESE,121,0.0,0.0,89,0.00,,,0.00,WeatherDisplay:10.37,2013-09-20 10:14:00,
2013-09-20 06:19:00,53.3,50.1,30.01,ESE,121,0.0,0.0,89,0.00,,,0.00,WeatherDisplay:10.37,2013-09-20 10:19:00,
2013-09-20 06:24:00,53.4,50.2,30.01,ESE,121,0.0,0.0,89,0.00,CLR,,0.00,WeatherDisplay:10.37,2013-09-20 10:24:00,
2013-09-20 06:29:00,53.4,50.2,30.01,ESE,121,0.0,0.0,89,0.00,CLR,,0.00,WeatherDisplay:10.37,2013-09-20 10:29:00,
2013-09-20 06:34:00,53.4,50.2,30.01,ESE,121,0.0,0.0,89,0.00,CLR,,0.00,WeatherDisplay:10.37,2013-09-20 10:34:00,
2013-09-20 06:39:00,53.4,50.2,30.01,ESE,121,0.0,0.0,89,0.00,CLR,,0.00,WeatherDisplay:10.37,2013-09-20 10:39:00,
2013-09-20 06:44:00,53.5,50.3,30.01,ESE,121,0.0,0.0,89,0.00,CLR,,0.00,WeatherDisplay:10.37,2013-09-20 10:44:00,
2013-09-20 06:49:00,53.5,50.3,30.01,ESE,121,0.0,0.0,89,0.00,CLR,,0.00,WeatherDisplay:10.37,2013-09-20 10:49:00,
2013-09-20 06:54:00,53.5,50.3,30.01,ESE,121,0.0,0.0,89,0.00,CLR,,0.00,WeatherDisplay:10.37,2013-09-20 10:54:00,
2013-09-20 06:59:00,53.7,50.5,30.01,ESE,121,0.0,0.0,89,0.00,CLR,,0.00,WeatherDisplay:10.37,2013-09-20 10:59:00,
2013-09-20 07:04:00,53.8,50.6,30.01,ESE,121,0.0,0.0,89,0.00,CLR,,0.00,WeatherDisplay:10.37,2013-09-20 11:04:00,
2013-09-20 07:09:00,53.9,50.7,30.01,ESE,121,0.0,0.0,89,0.00,CLR,,0.00,WeatherDisplay:10.37,2013-09-20 11:09:00,
2013-09-20 07:14:00,54.0,51.1,30.01,ESE,120,0.0,0.0,90,0.00,CLR,,0.00,WeatherDisplay:10.37,2013-09-20 11:14:00,
2013-09-20 07:19:00,54.1,51.2,30.01,ESE,120,1.1,0.0,90,0.00,CLR,,0.00,WeatherDisplay:10.37,2013-09-20 11:19:00,
2013-09-20 07:24:00,54.2,51.3,30.02,ESE,120,0.0,0.0,90,0.00,CLR,,0.00,WeatherDisplay:10.37,2013-09-20 11:24:00,
2013-09-20 07:29:00,54.3,51.4,30.01,ESE,120,0.0,0.0,90,0.00,CLR,,0.00,WeatherDisplay:10.37,2013-09-20 11:29:00,
2013-09-20 07:34:00,54.4,51.5,30.01,ESE,120,0.0,0.0,90,0.00,CLR,,0.00,WeatherDisplay:10.37,2013-09-20 11:34:00,
2013-09-20 07:39:00,54.4,51.5,30.01,ESE,120,0.0,0.0,90,0.00,CLR,,0.00,WeatherDisplay:10.37,2013-09-20 11:39:00,
2013-09-20 07:44:00,54.7,51.8,30.01,ESE,122,0.0,0.0,90,0.00,CLR,,0.00,WeatherDisplay:10.37,2013-09-20 11:44:00,
2013-09-20 07:49:00,55.2,52.3,30.01,ESE,122,0.0,0.0,90,0.00,CLR,,0.00,WeatherDisplay:10.37,2013-09-20 11:49:00,
2013-09-20 07:55:00,55.5,52.6,30.02,ESE,122,0.0,0.0,90,0.00,CLR,,0.00,WeatherDisplay:10.37,2013-09-20 11:55:00,
2013-09-20 08:00:00,55.6,52.7,30.01,ESE,122,0.0,0.0,90,0.00,CLR,,0.00,WeatherDisplay:10.37,2013-09-20 12:00:00,
2013-09-20 08:05:00,55.8,52.9,30.01,ESE,122,0.0,0.0,90,0.00,CLR,,0.00,WeatherDisplay:10.37,2013-09-20 12:05:00,
2013-09-20 08:10:00,56.0,53.1,30.01,ESE,123,0.0,0.0,90,0.00,CLR,,0.00,WeatherDisplay:10.37,2013-09-20 12:10:00,
2013-09-20 08:15:00,56.3,53.4,30.01,South,188,1.1,1.1,90,0.00,CLR,,0.00,WeatherDisplay:10.37,2013-09-20 12:15:00,
2013-09-20 08:20:00,56.6,53.7,30.01,South,179,0.0,0.0,90,0.00,CLR,,0.00,WeatherDisplay:10.37,2013-09-20 12:20:00,
2013-09-20 08:25:00,56.8,53.9,30.01,South,179,0.0,0.0,90,0.00,CLR,,0.00,WeatherDisplay:10.37,2013-09-20 12:25:00,
2013-09-20 08:30:00,57.1,54.2,30.01,SSE,152,0.0,0.0,90,0.00,CLR,,0.00,WeatherDisplay:10.37,2013-09-20 12:30:00,
2013-09-20 08:35:00,57.2,54.3,30.00,East,91,0.0,0.0,90,0.00,CLR,,0.00,WeatherDisplay:10.37,2013-09-20 12:35:00,
2013-09-20 08:40:00,57.5,54.6,30.00,ENE,76,0.0,0.0,90,0.00,CLR,,0.00,WeatherDisplay:10.37,2013-09-20 12:40:00,
2013-09-20 08:45:00,57.8,54.9,30.00,SSE,158,0.0,0.0,90,0.00,CLR,,0.00,WeatherDisplay:10.37,2013-09-20 12:45:00,
2013-09-20 08:50:00,58.1,55.2,30.00,SSE,153,0.0,0.0,90,0.00,CLR,,0.00,WeatherDisplay:10.37,2013-09-20 12:50:00,
2013-09-20 08:55:00,58.5,55.9,30.00,SSE,149,0.0,0.0,91,0.00,CLR,,0.00,WeatherDisplay:10.37,2013-09-20 12:55:00,
2013-09-20 09:00:00,58.8,56.2,30.00,South,189,0.0,0.0,91,0.01,RA,,0.01,WeatherDisplay:10.37,2013-09-20 13:00:00,
2013-09-20 09:05:00,59.1,56.5,30.00,SE,132,0.0,0.0,91,0.01,RA,,0.01,WeatherDisplay:10.37,2013-09-20 13:05:00,
2013-09-20 09:10:00,59.4,56.8,30.00,SE,127,0.0,0.0,91,0.01,CLR,,0.01,WeatherDisplay:10.37,2013-09-20 13:10:00,
2013-09-20 09:15:00,59.8,57.2,30.00,SSW,212,2.3,2.3,91,0.01,CLR,,0.01,WeatherDisplay:10.37,2013-09-20 13:15:00,
2013-09-20 09:20:00,60.3,57.7,30.00,SSE,161,1.1,1.1,91,0.01,CLR,,0.01,WeatherDisplay:10.37,2013-09-20 13:20:00,
2013-09-20 09:25:00,60.7,58.1,30.00,SE,124,0.0,0.0,91,0.01,CLR,,0.01,WeatherDisplay:10.37,2013-09-20 13:25:00,
2013-09-20 09:30:00,61.3,58.7,30.00,East,91,3.5,3.5,91,0.01,CLR,,0.01,WeatherDisplay:10.37,2013-09-20 13:30:00,
2013-09-20 09:35:00,61.7,59.0,30.00,SE,143,2.3,2.3,91,0.01,CLR,,0.01,WeatherDisplay:10.37,2013-09-20 13:35:00,
2013-09-20 09:40:00,62.2,59.2,30.00,WSW,248,3.5,3.5,90,0.01,CLR,,0.01,WeatherDisplay:10.37,2013-09-20 13:40:00,
2013-09-20 09:45:00,62.6,59.3,30.00,ESE,103,2.3,2.3,89,0.01,CLR,,0.01,WeatherDisplay:10.37,2013-09-20 13:45:00,
2013-09-20 09:50:00,63.3,60.6,30.00,SE,140,2.3,2.3,91,0.01,CLR,,0.01,WeatherDisplay:10.37,2013-09-20 13:50:00,
2013-09-20 09:55:00,63.9,61.8,30.00,SW,236,2.3,2.3,93,0.01,CLR,,0.01,WeatherDisplay:10.37,2013-09-20 13:55:00,
2013-09-20 10:00:00,64.3,61.9,30.00,WSW,241,3.5,3.5,92,0.00,CLR,,0.01,WeatherDisplay:10.37,2013-09-20 14:00:00,
2013-09-20 10:05:00,64.9,62.5,30.00,SE,136,1.1,1.1,92,0.00,CLR,,0.01,WeatherDisplay:10.37,2013-09-20 14:05:00,
2013-09-20 10:11:00,65.4,62.4,30.00,ENE,68,3.5,3.5,90,0.00,CLR,,0.01,WeatherDisplay:10.37,2013-09-20 14:11:00,
2013-09-20 10:16:00,65.9,62.9,29.99,South,177,2.3,2.3,90,0.00,CLR,,0.01,WeatherDisplay:10.37,2013-09-20 14:16:00,
2013-09-20 10:21:00,66.5,63.2,29.99,WSW,238,5.0,5.0,89,0.00,CLR,,0.01,WeatherDisplay:10.37,2013-09-20 14:21:00,
2013-09-20 10:26:00,67.0,63.3,29.99,South,173,3.5,3.5,88,0.00,CLR,,0.01,WeatherDisplay:10.37,2013-09-20 14:26:00,
2013-09-20 10:31:00,67.5,63.5,29.99,SSW,201,5.8,5.8,87,0.00,CLR,,0.01,WeatherDisplay:10.37,2013-09-20 14:31:00,
2013-09-20 10:36:00,68.0,63.3,29.99,SE,145,3.5,3.5,85,0.00,CLR,,0.01,WeatherDisplay:10.37,2013-09-20 14:36:00,
2013-09-20 10:41:00,68.7,63.7,29.99,SSE,158,3.5,3.5,84,0.00,CLR,,0.01,WeatherDisplay:10.37,2013-09-20 14:41:00,
2013-09-20 10:46:00,69.1,63.7,29.99,SSW,210,5.8,5.8,83,0.00,CLR,,0.01,WeatherDisplay:10.37,2013-09-20 14:46:00,
2013-09-20 10:51:00,69.6,64.2,29.98,East,81,2.0,2.0,83,0.00,CLR,,0.01,WeatherDisplay:10.37,2013-09-20 14:51:00,
2013-09-20 10:56:00,70.1,64.0,29.98,SE,136,2.3,2.3,81,0.00,CLR,,0.01,WeatherDisplay:10.37,2013-09-20 14:56:00,
2013-09-20 11:01:00,70.6,64.8,29.99,SE,127,5.0,5.0,82,0.00,CLR,,0.01,WeatherDisplay:10.37,2013-09-20 15:01:00,
2013-09-20 11:06:00,71.2,64.7,29.98,NE,49,3.5,3.5,80,0.00,CLR,,0.01,WeatherDisplay:10.37,2013-09-20 15:06:00,
2013-09-20 11:11:00,71.6,65.1,29.98,ESE,120,1.1,1.1,80,0.00,CLR,,0.01,WeatherDisplay:10.37,2013-09-20 15:11:00,
2013-09-20 11:16:00,72.3,65.1,29.98,SE,141,0.0,0.0,78,0.00,CLR,,0.01,WeatherDisplay:10.37,2013-09-20 15:16:00,
2013-09-20 11:21:00,72.7,64.3,29.98,WSW,256,2.3,2.3,75,0.00,CLR,,0.01,WeatherDisplay:10.37,2013-09-20 15:21:00,
2013-09-20 11:26:00,72.9,64.5,29.98,ESE,110,3.5,3.5,75,0.00,CLR,,0.01,WeatherDisplay:10.37,2013-09-20 15:26:00,
2013-09-20 11:31:00,73.1,65.1,29.98,South,170,4.6,4.6,76,0.00,CLR,,0.01,WeatherDisplay:10.37,2013-09-20 15:31:00,
2013-09-20 11:36:00,73.2,64.4,29.97,SSW,197,4.6,4.6,74,0.00,CLR,,0.01,WeatherDisplay:10.37,2013-09-20 15:36:00,
2013-09-20 11:41:00,73.5,64.7,29.97,WSW,249,3.5,3.5,74,0.00,CLR,,0.01,WeatherDisplay:10.37,2013-09-20 15:41:00,
2013-09-20 11:46:00,73.7,64.5,29.97,SE,139,3.5,3.5,73,0.00,CLR,,0.01,WeatherDisplay:10.37,2013-09-20 15:46:00,
2013-09-20 11:51:00,73.7,64.9,29.96,South,181,3.5,3.5,74,0.00,CLR,,0.01,WeatherDisplay:10.37,2013-09-20 15:51:00,
2013-09-20 11:56:00,74.0,65.6,29.96,WSW,241,2.3,2.3,75,0.00,CLR,,0.01,WeatherDisplay:10.37,2013-09-20 15:56:00,
2013-09-20 12:01:00,74.5,65.7,29.95,East,101,2.3,2.3,74,0.00,CLR,,0.01,WeatherDisplay:10.37,2013-09-20 16:01:00,
2013-09-20 12:06:00,74.7,66.2,29.95,SE,133,1.1,1.1,75,0.00,,,0.01,WeatherDisplay:10.37,2013-09-20 16:06:00,
2013-09-20 12:11:00,75.1,66.2,29.94,SW,218,2.3,2.3,74,0.00,,,0.01,WeatherDisplay:10.37,2013-09-20 16:11:00,
2013-09-20 12:16:00,75.8,65.7,29.95,SW,233,3.5,3.5,71,0.00,,,0.01,WeatherDisplay:10.37,2013-09-20 16:16:00,
2013-09-20 12:21:00,76.1,65.6,29.94,SW,217,2.3,2.3,70,0.00,,,0.01,WeatherDisplay:10.37,2013-09-20 16:21:00,
2013-09-20 12:26:00,76.1,66.4,29.94,SE,145,2.3,2.3,72,0.00,,,0.01,WeatherDisplay:10.37,2013-09-20 16:26:00,
2013-09-20 12:31:00,76.2,65.7,29.94,SSE,148,2.0,2.0,70,0.00,,,0.01,WeatherDisplay:10.37,2013-09-20 16:31:00,
2013-09-20 12:36:00,76.2,65.7,29.94,SE,138,3.5,3.5,70,0.00,,,0.01,WeatherDisplay:10.37,2013-09-20 16:36:00,
2013-09-20 12:41:00,76.3,65.4,29.93,SSE,167,5.8,5.8,69,0.00,,,0.01,WeatherDisplay:10.37,2013-09-20 16:41:00,
2013-09-20 12:46:00,76.4,65.5,29.93,SW,222,8.0,8.0,69,0.00,,,0.01,WeatherDisplay:10.37,2013-09-20 16:46:00,
2013-09-20 12:51:00,76.6,66.1,29.93,WSW,245,3.5,3.5,70,0.00,,,0.01,WeatherDisplay:10.37,2013-09-20 16:51:00,
2013-09-20 12:56:00,77.0,66.0,29.93,SSE,150,2.0,2.0,69,0.00,,,0.01,WeatherDisplay:10.37,2013-09-20 16:56:00,
2013-09-20 13:01:00,76.9,66.0,29.93,WSW,257,4.6,4.6,69,0.00,,,0.01,WeatherDisplay:10.37,2013-09-20 17:01:00,
2013-09-20 13:06:00,77.1,66.1,29.93,WSW,257,3.5,3.5,69,0.00,,,0.01,WeatherDisplay:10.37,2013-09-20 17:06:00,
2013-09-20 13:11:00,77.6,66.6,29.93,WSW,243,1.1,1.1,69,0.00,,,0.01,WeatherDisplay:10.37,2013-09-20 17:11:00,
2013-09-20 13:16:00,77.5,64.8,29.93,SW,217,8.1,8.1,65,0.00,,,0.01,WeatherDisplay:10.37,2013-09-20 17:16:00,
2013-09-20 13:21:00,77.5,64.8,29.92,SSW,203,5.8,5.8,65,0.00,,,0.01,WeatherDisplay:10.37,2013-09-20 17:21:00,
2013-09-20 13:27:00,77.5,65.2,29.93,ENE,71,5.8,5.8,66,0.00,,,0.01,WeatherDisplay:10.37,2013-09-20 17:27:00,
2013-09-20 13:32:00,77.7,65.0,29.92,SSE,163,5.0,5.0,65,0.00,,,0.01,WeatherDisplay:10.37,2013-09-20 17:32:00,
2013-09-20 13:37:00,77.4,64.7,29.91,SW,222,5.0,5.0,65,0.00,,,0.01,WeatherDisplay:10.37,2013-09-20 17:37:00,
2013-09-20 13:42:00,77.7,65.4,29.91,SW,218,4.6,4.6,66,0.00,,,0.01,WeatherDisplay:10.37,2013-09-20 17:42:00,
2013-09-20 13:47:00,78.1,65.8,29.91,SW,233,4.0,4.0,66,0.00,,,0.01,WeatherDisplay:10.37,2013-09-20 17:47:00,
2013-09-20 13:52:00,77.9,65.2,29.91,West,262,6.9,6.9,65,0.00,,,0.01,WeatherDisplay:10.37,2013-09-20 17:52:00,
2013-09-20 13:57:00,77.8,64.2,29.91,SSW,211,3.5,3.5,63,0.00,,,0.01,WeatherDisplay:10.37,2013-09-20 17:57:00,
2013-09-20 14:02:00,78.4,65.2,29.91,SSW,203,3.5,3.5,64,0.00,,,0.01,WeatherDisplay:10.37,2013-09-20 18:02:00,
2013-09-20 14:07:00,78.8,66.0,29.91,South,188,5.8,5.8,65,0.00,,,0.01,WeatherDisplay:10.37,2013-09-20 18:07:00,
2013-09-20 14:12:00,78.9,65.7,29.91,SW,214,2.3,2.4,64,0.00,,,0.01,WeatherDisplay:10.37,2013-09-20 18:12:00,
2013-09-20 14:17:00,79.1,65.9,29.90,SW,232,3.5,3.5,64,0.00,,,0.01,WeatherDisplay:10.37,2013-09-20 18:17:00,
2013-09-20 14:22:00,79.1,65.4,29.90,WSW,240,4.6,4.6,63,0.00,,,0.01,WeatherDisplay:10.37,2013-09-20 18:22:00,
2013-09-20 14:27:00,78.7,65.9,29.89,East,83,5.0,5.0,65,0.00,,,0.01,WeatherDisplay:10.37,2013-09-20 18:27:00,
2013-09-20 14:32:00,78.4,64.8,29.89,SSW,208,2.3,2.3,63,0.00,,,0.01,WeatherDisplay:10.37,2013-09-20 18:32:00,
2013-09-20 14:37:00,78.6,65.8,29.89,SSW,209,4.6,4.6,65,0.00,,,0.01,WeatherDisplay:10.37,2013-09-20 18:37:00,
2013-09-20 14:42:00,79.0,65.8,29.89,SSW,209,2.3,2.3,64,0.00,,,0.01,WeatherDisplay:10.37,2013-09-20 18:42:00,
2013-09-20 14:47:00,79.1,66.3,29.89,SE,127,3.5,3.5,65,0.00,,,0.01,WeatherDisplay:10.37,2013-09-20 18:47:00,
2013-09-20 14:52:00,79.0,64.9,29.89,SW,231,3.5,3.5,62,0.00,,,0.01,WeatherDisplay:10.37,2013-09-20 18:52:00,
2013-09-20 14:57:00,79.1,66.3,29.88,SE,134,2.3,2.3,65,0.00,,,0.01,WeatherDisplay:10.37,2013-09-20 18:57:00,
2013-09-20 15:02:00,79.3,65.6,29.88,SSE,150,1.1,1.1,63,0.00,,,0.01,WeatherDisplay:10.37,2013-09-20 19:02:00,
2013-09-20 15:07:00,79.5,65.3,29.87,SW,215,3.5,3.5,62,0.00,,,0.01,WeatherDisplay:10.37,2013-09-20 19:07:00,
2013-09-20 15:12:00,79.5,65.3,29.87,SSE,163,3.5,3.5,62,0.00,,,0.01,WeatherDisplay:10.37,2013-09-20 19:12:00,
2013-09-20 15:17:00,79.4,66.2,29.87,ENE,76,3.5,3.5,64,0.00,,,0.01,WeatherDisplay:10.37,2013-09-20 19:17:00,
2013-09-20 15:22:00,79.4,65.2,29.87,SE,126,2.3,2.3,62,0.00,,,0.01,WeatherDisplay:10.37,2013-09-20 19:22:00,
2013-09-20 15:27:00,79.2,64.6,29.87,SSE,157,4.6,4.6,61,0.00,,,0.01,WeatherDisplay:10.37,2013-09-20 19:27:00,
2013-09-20 15:32:00,79.2,63.6,29.86,SE,133,5.8,5.8,59,0.00,,,0.01,WeatherDisplay:10.37,2013-09-20 19:32:00,
2013-09-20 15:37:00,79.3,65.1,29.86,East,98,5.8,5.8,62,0.00,,,0.01,WeatherDisplay:10.37,2013-09-20 19:37:00,
2013-09-20 15:42:00,79.2,65.1,29.86,NNE,29,2.3,2.3,62,0.00,,,0.01,WeatherDisplay:10.37,2013-09-20 19:42:00,
2013-09-20 15:47:00,79.2,64.1,29.86,SSE,153,9.2,9.2,60,0.00,,,0.01,WeatherDisplay:10.37,2013-09-20 19:47:00,
2013-09-20 15:52:00,79.1,64.5,29.86,NE,49,5.8,5.8,61,0.00,,,0.01,WeatherDisplay:10.37,2013-09-20 19:52:00,
2013-09-20 15:57:00,79.0,64.9,29.86,SSW,207,10.4,10.4,62,0.00,,,0.01,WeatherDisplay:10.37,2013-09-20 19:57:00,
2013-09-20 16:02:00,78.9,64.8,29.85,ENE,75,4.6,4.6,62,0.00,,,0.01,WeatherDisplay:10.37,2013-09-20 20:02:00,
2013-09-20 16:07:00,78.8,64.7,29.85,ESE,113,2.3,2.3,62,0.00,,,0.01,WeatherDisplay:10.37,2013-09-20 20:07:00,
2013-09-20 16:12:00,79.0,63.0,29.85,SW,215,9.2,9.2,58,0.00,,,0.01,WeatherDisplay:10.37,2013-09-20 20:12:00,
2013-09-20 16:17:00,79.1,63.1,29.85,SSE,168,9.2,9.2,58,0.00,,,0.01,WeatherDisplay:10.37,2013-09-20 20:17:00,
2013-09-20 16:22:00,79.3,63.7,29.85,SE,131,4.6,4.6,59,0.00,,,0.01,WeatherDisplay:10.37,2013-09-20 20:22:00,
2013-09-20 16:27:00,79.4,62.3,29.85,ESE,114,6.9,6.9,56,0.00,,,0.01,WeatherDisplay:10.37,2013-09-20 20:27:00,
2013-09-20 16:32:00,79.4,63.3,29.84,South,184,2.0,2.0,58,0.00,,,0.01,WeatherDisplay:10.37,2013-09-20 20:32:00,
2013-09-20 16:37:00,79.6,63.0,29.84,SSW,197,8.1,8.1,57,0.00,,,0.01,WeatherDisplay:10.37,2013-09-20 20:37:00,
2013-09-20 16:42:00,79.4,62.8,29.84,SE,132,5.8,5.8,57,0.00,,,0.01,WeatherDisplay:10.37,2013-09-20 20:42:00,
2013-09-20 16:47:00,79.0,63.4,29.84,WSW,250,2.3,2.3,59,0.00,,,0.01,WeatherDisplay:10.37,2013-09-20 20:47:00,
2013-09-20 16:52:00,78.9,63.4,29.84,SW,225,2.3,2.3,59,0.00,,,0.01,WeatherDisplay:10.37,2013-09-20 20:52:00,
2013-09-20 16:57:00,78.7,63.2,29.84,SSW,203,2.3,2.8,59,0.00,,,0.01,WeatherDisplay:10.37,2013-09-20 20:57:00,
2013-09-20 17:02:00,78.4,62.9,29.84,SSE,148,3.5,3.5,59,0.00,,,0.01,WeatherDisplay:10.37,2013-09-20 21:02:00,
2013-09-20 17:07:00,78.0,63.5,29.85,SW,217,7.0,7.0,61,0.00,,,0.01,WeatherDisplay:10.37,2013-09-20 21:07:00,
2013-09-20 17:13:00,77.7,62.2,29.85,SSW,205,3.5,3.5,59,0.00,,,0.01,WeatherDisplay:10.37,2013-09-20 21:13:00,
2013-09-20 17:18:00,77.6,63.1,29.85,ESE,120,2.3,2.3,61,0.00,,,0.01,WeatherDisplay:10.37,2013-09-20 21:18:00,
2013-09-20 17:23:00,77.4,63.4,29.84,WSW,256,2.3,2.3,62,0.00,,,0.01,WeatherDisplay:10.37,2013-09-20 21:23:00,
2013-09-20 17:28:00,77.0,63.4,29.84,WSW,245,0.0,0.6,63,0.00,,,0.01,WeatherDisplay:10.37,2013-09-20 21:28:00,
2013-09-20 17:33:00,76.7,63.2,29.84,East,86,1.1,1.1,63,0.00,,,0.01,WeatherDisplay:10.37,2013-09-20 21:33:00,
2013-09-20 17:38:00,76.5,63.4,29.84,SSW,197,0.0,1.3,64,0.00,,,0.01,WeatherDisplay:10.37,2013-09-20 21:38:00,
2013-09-20 17:43:00,76.2,63.6,29.84,SSW,193,0.0,0.0,65,0.00,,,0.01,WeatherDisplay:10.37,2013-09-20 21:43:00,
2013-09-20 17:48:00,75.8,63.6,29.84,SSE,162,4.0,4.0,66,0.00,,,0.01,WeatherDisplay:10.37,2013-09-20 21:48:00,
2013-09-20 17:53:00,75.4,63.7,29.84,South,173,3.5,3.5,67,0.00,,,0.01,WeatherDisplay:10.37,2013-09-20 21:53:00,
2013-09-20 17:58:00,75.1,63.4,29.84,South,185,3.5,3.5,67,0.00,,,0.01,WeatherDisplay:10.37,2013-09-20 21:58:00,
2013-09-20 18:03:00,74.8,63.5,29.84,South,191,0.0,0.0,68,0.00,CLR,,0.01,WeatherDisplay:10.37,2013-09-20 22:03:00,
2013-09-20 18:08:00,74.6,63.8,29.84,SSE,149,2.0,2.0,69,0.00,CLR,,0.01,WeatherDisplay:10.37,2013-09-20 22:08:00,
2013-09-20 18:13:00,74.4,63.6,29.84,SSW,204,0.0,0.0,69,0.00,CLR,,0.01,WeatherDisplay:10.37,2013-09-20 22:13:00,
2013-09-20 18:18:00,74.1,63.7,29.84,West,277,2.3,2.3,70,0.00,CLR,,0.01,WeatherDisplay:10.37,2013-09-20 22:18:00,
2013-09-20 18:23:00,73.8,63.4,29.84,SE,131,0.0,0.0,70,0.00,CLR,,0.01,WeatherDisplay:10.37,2013-09-20 22:23:00,
2013-09-20 18:28:00,73.5,63.5,29.83,SE,131,0.0,0.0,71,0.00,CLR,,0.01,WeatherDisplay:10.37,2013-09-20 22:28:00,
2013-09-20 18:33:00,73.2,63.6,29.83,WSW,249,0.0,0.0,72,0.00,CLR,,0.01,WeatherDisplay:10.37,2013-09-20 22:33:00,
2013-09-20 18:38:00,72.9,63.7,29.83,SSE,152,0.0,0.0,73,0.00,CLR,,0.01,WeatherDisplay:10.37,2013-09-20 22:38:00,
2013-09-20 18:43:00,72.6,63.1,29.83,NW,309,1.1,0.0,72,0.00,CLR,,0.01,WeatherDisplay:10.37,2013-09-20 22:43:00,
2013-09-20 18:48:00,72.3,63.2,29.83,NW,307,0.0,0.0,73,0.00,CLR,,0.01,WeatherDisplay:10.37,2013-09-20 22:48:00,
2013-09-20 18:53:00,71.9,62.8,29.83,SSW,195,3.5,3.5,73,0.00,CLR,,0.01,WeatherDisplay:10.37,2013-09-20 22:53:00,
2013-09-20 18:58:00,71.7,63.0,29.83,SSW,198,0.0,0.0,74,0.00,CLR,,0.01,WeatherDisplay:10.37,2013-09-20 22:58:00,
2013-09-20 19:03:00,71.4,63.1,29.83,SSW,210,0.0,0.0,75,0.00,CLR,,0.01,WeatherDisplay:10.37,2013-09-20 23:03:00,
2013-09-20 19:08:00,71.1,62.4,29.82,SW,233,0.0,0.0,74,0.00,CLR,,0.01,WeatherDisplay:10.37,2013-09-20 23:08:00,
2013-09-20 19:13:00,70.9,62.2,29.82,SW,222,0.0,0.0,74,0.00,CLR,,0.01,WeatherDisplay:10.37,2013-09-20 23:13:00,
2013-09-20 19:18:00,70.8,62.1,29.82,South,179,1.1,0.0,74,0.00,CLR,,0.01,WeatherDisplay:10.37,2013-09-20 23:18:00,
2013-09-20 19:23:00,70.7,62.4,29.82,SSE,168,0.0,0.0,75,0.00,CLR,,0.01,WeatherDisplay:10.37,2013-09-20 23:23:00,
2013-09-20 19:28:00,70.3,62.0,29.82,SW,216,0.0,0.0,75,0.00,CLR,,0.01,WeatherDisplay:10.37,2013-09-20 23:28:00,
2013-09-20 19:33:00,70.0,61.7,29.81,SW,217,1.1,0.0,75,0.00,CLR,,0.01,WeatherDisplay:10.37,2013-09-20 23:33:00,
2013-09-20 19:38:00,69.9,62.0,29.82,SSE,163,0.0,0.0,76,0.00,CLR,,0.01,WeatherDisplay:10.37,2013-09-20 23:38:00,
2013-09-20 19:43:00,69.6,62.1,29.81,WSW,253,0.0,0.0,77,0.00,,,0.01,WeatherDisplay:10.37,2013-09-20 23:43:00,
2013-09-20 19:48:00,69.3,61.8,29.82,SSW,205,0.0,0.0,77,0.00,,,0.01,WeatherDisplay:10.37,2013-09-20 23:48:00,
2013-09-20 19:53:00,68.9,61.8,29.82,SSE,159,0.0,0.0,78,0.00,,,0.01,WeatherDisplay:10.37,2013-09-20 23:53:00,
2013-09-20 19:58:00,68.8,61.7,29.82,SSE,168,0.0,0.0,78,0.00,,,0.01,WeatherDisplay:10.37,2013-09-20 23:58:00,
2013-09-20 20:03:00,68.7,61.6,29.82,SSW,210,0.0,0.0,78,0.00,,,0.01,WeatherDisplay:10.37,2013-09-21 00:03:00,
2013-09-20 20:08:00,68.6,61.5,29.82,SSW,210,0.0,0.0,78,0.00,,,0.01,WeatherDisplay:10.37,2013-09-21 00:08:00,
2013-09-20 20:13:00,68.5,61.4,29.83,West,271,0.0,0.1,78,0.00,,,0.01,WeatherDisplay:10.37,2013-09-21 00:13:00,
2013-09-20 20:18:00,68.4,61.6,29.83,SSE,159,0.0,0.0,79,0.00,,,0.01,WeatherDisplay:10.37,2013-09-21 00:18:00,
2013-09-20 20:23:00,68.2,61.4,29.83,SSE,162,0.0,0.0,79,0.00,,,0.01,WeatherDisplay:10.37,2013-09-21 00:23:00,
2013-09-20 20:28:00,68.2,61.4,29.83,WSW,240,3.5,3.5,79,0.00,,,0.01,WeatherDisplay:10.37,2013-09-21 00:28:00,
2013-09-20 20:33:00,68.3,61.5,29.82,SE,138,0.0,0.0,79,0.00,,,0.01,WeatherDisplay:10.37,2013-09-21 00:33:00,
2013-09-20 20:38:00,68.1,61.0,29.82,SE,131,0.0,0.0,78,0.00,,,0.01,WeatherDisplay:10.37,2013-09-21 00:38:00,
2013-09-20 20:43:00,67.9,61.5,29.82,West,275,0.0,0.0,80,0.00,,,0.01,WeatherDisplay:10.37,2013-09-21 00:43:00,
2013-09-20 20:48:00,67.9,61.1,29.82,ESE,103,1.1,1.1,79,0.00,,,0.01,WeatherDisplay:10.37,2013-09-21 00:48:00,
2013-09-20 20:53:00,67.9,61.1,29.82,East,101,1.1,1.1,79,0.00,,,0.01,WeatherDisplay:10.37,2013-09-21 00:53:00,
2013-09-20 20:58:00,68.0,60.9,29.82,SSW,212,0.0,0.0,78,0.00,,,0.01,WeatherDisplay:10.37,2013-09-21 00:58:00,
2013-09-20 21:03:00,68.0,60.9,29.83,SE,145,2.3,0.0,78,0.00,,,0.01,WeatherDisplay:10.37,2013-09-21 01:03:00,
2013-09-20 21:08:00,67.8,60.7,29.83,South,173,1.1,0.0,78,0.00,,,0.01,WeatherDisplay:10.37,2013-09-21 01:08:00,
2013-09-20 21:13:00,67.7,61.0,29.83,SW,221,0.0,0.3,79,0.00,,,0.01,WeatherDisplay:10.37,2013-09-21 01:13:00,
2013-09-20 21:18:00,67.6,61.2,29.83,SE,132,1.1,1.1,80,0.00,,,0.01,WeatherDisplay:10.37,2013-09-21 01:18:00,
2013-09-20 21:23:00,67.3,60.6,29.83,SW,229,3.0,3.0,79,0.00,,,0.01,WeatherDisplay:10.37,2013-09-21 01:23:00,
2013-09-20 21:28:00,67.2,60.8,29.82,SW,233,0.0,0.0,80,0.00,,,0.01,WeatherDisplay:10.37,2013-09-21 01:28:00,
2013-09-20 21:34:00,67.1,60.7,29.82,SW,217,5.8,5.8,80,0.00,,,0.01,WeatherDisplay:10.37,2013-09-21 01:34:00,
2013-09-20 21:39:00,67.1,60.4,29.82,NW,304,1.0,1.1,79,0.00,,,0.01,WeatherDisplay:10.37,2013-09-21 01:39:00,
2013-09-20 21:44:00,67.2,60.5,29.82,SW,225,3.5,3.5,79,0.00,,,0.01,WeatherDisplay:10.37,2013-09-21 01:44:00,
2013-09-20 21:49:00,67.3,60.6,29.83,SE,136,3.5,3.5,79,0.00,,,0.01,WeatherDisplay:10.37,2013-09-21 01:49:00,
2013-09-20 21:54:00,67.3,60.6,29.82,SW,222,2.3,2.3,79,0.00,,,0.01,WeatherDisplay:10.37,2013-09-21 01:54:00,
2013-09-20 21:59:00,67.3,60.6,29.82,SE,131,2.3,2.3,79,0.00,,,0.01,WeatherDisplay:10.37,2013-09-21 01:59:00,
2013-09-20 22:04:00,67.2,60.8,29.82,SSW,211,1.1,1.1,80,0.00,,,0.01,WeatherDisplay:10.37,2013-09-21 02:04:00,
2013-09-20 22:09:00,67.3,60.6,29.82,West,264,3.5,3.5,79,0.00,,,0.01,WeatherDisplay:10.37,2013-09-21 02:09:00,
2013-09-20 22:14:00,67.5,60.8,29.83,SSW,211,1.1,1.1,79,0.00,,,0.01,WeatherDisplay:10.37,2013-09-21 02:14:00,
2013-09-20 22:19:00,67.3,60.6,29.83,SW,219,1.1,0.0,79,0.00,,,0.01,WeatherDisplay:10.37,2013-09-21 02:19:00,
2013-09-20 22:24:00,67.2,60.8,29.83,SE,143,1.1,0.0,80,0.00,,,0.01,WeatherDisplay:10.37,2013-09-21 02:24:00,
2013-09-20 22:29:00,67.0,60.6,29.82,South,173,3.5,3.5,80,0.00,,,0.01,WeatherDisplay:10.37,2013-09-21 02:29:00,
2013-09-20 22:34:00,66.9,60.9,29.82,SSW,195,1.1,0.0,81,0.00,,,0.01,WeatherDisplay:10.37,2013-09-21 02:34:00,
2013-09-20 22:39:00,66.7,60.7,29.82,SSE,148,3.5,3.5,81,0.00,,,0.01,WeatherDisplay:10.37,2013-09-21 02:39:00,
2013-09-20 22:44:00,66.5,60.5,29.81,ESE,108,2.3,2.3,81,0.00,,,0.01,WeatherDisplay:10.37,2013-09-21 02:44:00,
2013-09-20 22:49:00,66.5,60.5,29.81,SSE,155,3.0,3.0,81,0.00,,,0.01,WeatherDisplay:10.37,2013-09-21 02:49:00,
2013-09-20 22:54:00,66.6,60.6,29.81,SSW,197,2.0,2.0,81,0.00,,,0.01,WeatherDisplay:10.37,2013-09-21 02:54:00,
2013-09-20 22:59:00,66.6,60.6,29.81,WSW,245,2.3,2.3,81,0.00,,,0.01,WeatherDisplay:10.37,2013-09-21 02:59:00,
2013-09-20 23:05:00,66.6,60.6,29.81,SE,136,0.0,0.6,81,0.00,,,0.01,WeatherDisplay:10.37,2013-09-21 03:05:00,
2013-09-20 23:10:00,66.4,60.4,29.81,South,181,0.0,0.0,81,0.00,,,0.01,WeatherDisplay:10.37,2013-09-21 03:10:00,
2013-09-20 23:15:00,66.3,60.6,29.81,SSW,197,2.3,2.3,82,0.00,,,0.01,WeatherDisplay:10.37,2013-09-21 03:15:00,
2013-09-20 23:20:00,66.2,60.5,29.81,WSW,257,2.3,2.3,82,0.00,,,0.01,WeatherDisplay:10.37,2013-09-21 03:20:00,
2013-09-20 23:25:00,66.0,60.3,29.80,West,259,3.5,3.5,82,0.00,,,0.01,WeatherDisplay:10.37,2013-09-21 03:25:00,
2013-09-20 23:30:00,66.0,60.3,29.80,SSW,205,8.1,0.0,82,0.00,,,0.01,WeatherDisplay:10.37,2013-09-21 03:30:00,
2013-09-20 23:35:00,66.0,60.3,29.81,ESE,121,1.1,1.1,82,0.00,,,0.01,WeatherDisplay:10.37,2013-09-21 03:35:00,
2013-09-20 23:40:00,66.1,60.4,29.80,ESE,117,0.0,0.0,82,0.00,,,0.01,WeatherDisplay:10.37,2013-09-21 03:40:00,
2013-09-20 23:45:00,65.9,60.6,29.80,SSE,167,4.0,4.0,83,0.00,,,0.01,WeatherDisplay:10.37,2013-09-21 03:45:00,
2013-09-20 23:50:00,65.9,60.6,29.80,SW,221,3.5,3.5,83,0.00,,,0.01,WeatherDisplay:10.37,2013-09-21 03:50:00,
2013-09-20 23:55:00,65.9,60.6,29.81,SE,131,3.0,3.0,83,0.00,,,0.01,WeatherDisplay:10.37,2013-09-21 03:55:00,